Regional Weather Roundup
Issued by NWS

Home | Current Version | Previous Version | Text Only | Print | Product List | Glossary Off
Versions: 1 2 3 4 5 6 7 8 9 10 11 12 13 14 15 16 17 18 19 20 21 22 23 24 25 26 27 28 29 30 31 32 33 34 35 36 37 38 39 40 41 42 43 44 45 46 47 48 49 50

000
ASUS43 KLSX 281107
RWRMO

WEATHER SUMMARY FOR MISSOURI
NATIONAL WEATHER SERVICE SPRINGFIELD MO
600 AM CDT FRI AUG 28 2015

NOTE: "FAIR" INDICATES FEW OR NO CLOUDS BELOW 12,000 FEET WITH NO
       SIGNIFICANT WEATHER AND/OR OBSTRUCTIONS TO VISIBILITY.
       CURRENT SKY AND/OR WEATHER CONDITIONS ARE NOT AVAILABLE FOR
       CHILLICOTHE AND FARMINGTON.

MOZ001>031-035>038-043-044-053-054-281200-
...NORTHERN AND WESTERN MISSOURI...

CITY           SKY/WX    TMP DP  RH WIND       PRES   REMARKS
KANSAS CTY INT CLOUDY    69  63  81 S13       29.96F
KANSAS C DTWN  CLOUDY    71  65  81 S10       29.96F
LEE`S SUMMIT   CLOUDY    69  63  81 S14G20    29.98F
ST JOSEPH      CLOUDY    69  66  90 S12       29.94R
CHILLICOTHE      N/A     67  61  81 SE6       30.00F
KIRKSVILLE     CLOUDY    61  58  90 S7        30.05S

$$
MOZ066>068-077>081-088>096-101>105-281200-
...SOUTHWEST MISSOURI...

CITY           SKY/WX    TMP DP  RH WIND       PRES   REMARKS
SPRINGFIELD    MOCLDY    63  58  83 SE10      30.06R
JOPLIN         MOCLDY    67  62  84 S8        30.02F

$$
MOZ032>034-039>042-045>050-055>058-069>072-281200-
...CENTRAL MISSOURI...

CITY           SKY/WX    TMP DP  RH WIND       PRES   REMARKS
COLUMBIA       PTCLDY    61  59  93 SE6       30.08S
JEFFERSON CITY PTCLDY    62  59  90 E7        30.07S
ROLLA          MOCLDY    60  57  89 SE10      30.08S
SEDALIA        CLOUDY    65  60  84 S8        30.05S
WHITEMAN AFB   PTCLDY    66  60  82 S9        30.01F
WARRENSBURG    CLOUDY    64  61  88 SE7       30.01S
OSAGE BEACH    MOCLDY    61  55  82 SE6       30.08S

$$
MOZ051-052-059>065-281200-
...EAST CENTRAL MISSOURI...

CITY           SKY/WX    TMP DP  RH WIND       PRES   REMARKS
ST LOUIS INTL  MOCLDY    63  57  81 E3        30.11R
SPIRIT OF STL  CLEAR     57  57 100 CALM      30.10R FOG
ST CHARLES     CLEAR     61  59  93 NE5       30.10R

$$
MOZ072>076-082>087-097>100-106>115-281200-
...SOUTH CENTRAL AND SOUTHEAST MISSOURI...

CITY           SKY/WX    TMP DP  RH WIND       PRES   REMARKS
CAPE GIRARDEAU PTCLDY    56  56 100 SE3       30.10S FOG
FARMINGTON     FAIR      55  54  94 CALM      30.14R
POPLAR BLUFF   CLEAR     58  56  93 CALM      30.08S
WEST PLAINS    CLEAR     55  52  89 CALM      30.11R

$$


USA.gov is the U.S. government's official web portal to all federal, state and local government web resources and services.